Hourly Data Report for May 04, 2004

SHERBROOKE A
QUEBEC

45°26'00.000" N
71°41'00.000" W
241.40 m
7028124
71610
YSC

Download Data

Hourly Data (May 2004)
Hourly Data Report for May 4, 2004
TIME
LST
Temp Definition
°C
Dew Point Definition
°C
Rel Hum Definition
%
Precip. Amount Definition
mm

Wind Dir Definition
10's deg

Wind Spd Definition
km/h
Visibility Definition
km
Stn Press Definition
kPa
Hmdx Definition


Wind Chill Definition


Weather Definition


00:00 3.7 2.3 91   28 17 5.6 98.31     Rain
01:00 2.4 1.1 91   30 9 8.0 98.10     Moderate Rain
02:00 1.7 0.6 92   28 9 8.0 97.96     Rain
03:00 0.2 -0.8 93   25 6 0.8 97.93     Freezing Rain
04:00 0.2 -0.8 93   17 4 3.9 97.86     Freezing Rain
05:00 0.5 -0.5 93   28 11 1.9 97.92      
06:00 0.2 -0.8 93   27 17 0.8 97.95      
07:00 0.2 -0.9 92   27 13 0.8 98.00     Moderate Snow
08:00 0.1 -0.9 93   27 11 0.8 98.01     Moderate Snow
09:00 0.4 -0.7 92   28 19 1.2 98.02     Snow
10:00 0.2 -0.9 92   28 19 1.6 98.07     Snow
11:00 0.8 -0.9 88   29 24 4.8 98.10     Snow
12:00 1.4 -1.3 82   29 19 19.3 98.10     Cloudy
13:00 1.4 -0.6 87   25 15 19.3 98.13     Ice Pellets
14:00 3.1 -0.5 77   27 22 19.3 98.10     Mostly Cloudy
15:00 5.3 -0.2 68   26 20 24.1 98.05     Mostly Cloudy
16:00 7.1 -0.3 59   25 13 24.1 98.05     Mostly Cloudy
17:00 8.0 -2.6 47   27 28 15.0 98.04      
18:00 7.6 -2.7 48   26 24 15.0 98.09      
19:00 6.1 -3.3 51   24 15 15.0 98.14      
20:00 4.6 -3.3 56   23 11 15.0 98.18      
21:00 3.4 -3.7 60   23 7 15.0 98.22      
22:00 2.9 -4.1 60   20 4 15.0 98.28      
23:00 2.5 -3.9 63   21 9 15.0 98.31      

Notes on Data Quality.

Legend

  • E = Estimated
  • M = Missing
  • NA = Not Available*
  • [empty] = Indicates an unobserved value
Date modified: